Weather Service Report


436 
ASUS41 KALY 242110
RWRALY

NEW YORK STATE HOURLY WEATHER ROUNDUP
NATIONAL WEATHER SERVICE ALBANY NY
500 PM EDT WED MAY 24 2017

NOTE: "FAIR" INDICATES FEW OR NO CLOUDS BELOW 12,000 FEET WITH NO
SIGNIFICANT WEATHER AND/OR NO OBSTRUCTIONS TO VISIBILITY.

NYZ032-033-038>043-046>054-057>066-NYZ062>081-082-084-242200-
EAST

  
CITY           SKY/WX    TMP DP  RH WIND       PRES   REMARKS
ALBANY         CLOUDY    76  47  35 S7        29.74S                  
GLENS FALLS    NOT AVBL                                               
POUGHKEEPSIE   CLOUDY    72  48  42 SE8       29.74S                  
NEWBURGH       PTSUNNY   72  52  49 SE12      29.77S                  
MONTGOMERY     CLOUDY    72  49  44 SE6       29.74S                  
WHITE PLAINS   PTSUNNY   66  47  50 E9G17     29.79R                  
ISLIP          PTSUNNY   66  53  63 SE7       29.78R                  
NEW YORK CITY  PTSUNNY   67  49  52 NE14      29.78R                  
CENTRAL PARK   CLOUDY    67  49  52 VRB3      29.81R                  
$$

NYZ005>009-017-018-044>046-055-056-242200-
CENTRAL

  
CITY           SKY/WX    TMP DP  RH WIND       PRES   REMARKS
FULTON         PTSUNNY   78  48  34 VRB6      29.67F                  
SYRACUSE       CLOUDY    75  50  41 SE8       29.67F                  
ROME           PTSUNNY   73  50  44 E14       29.71S                  
ELMIRA         PTSUNNY   73  46  38 SE13      29.68S                  
BINGHAMTON     PTSUNNY   70  46  42 SE12      29.73S                  
MONTICELLO     CLOUDY    66  48  52 SE12      29.78R                  
$$

NYZ026>034-041>043-087-242200-
NORTH

  
CITY           SKY/WX    TMP DP  RH WIND       PRES   REMARKS
WATERTOWN      CLOUDY    75  56  51 N6        29.68S                  
FORT DRUM      NOT AVBL                                               
OGDENSBURG     FAIR      75  50  41 NE5       29.72R                  
MASSENA        CLOUDY    75  52  44 NE10      29.73S                  
SARANAC LAKE   CLOUDY    70  48  45 E6        29.75R                  
PLATTSBURGH    MOSUNNY   74  43  32 NE6       29.74R                  
$$

NYZ001>004-010>016-019>021-085-242200-
WEST

  
CITY           SKY/WX    TMP DP  RH WIND       PRES   REMARKS
NIAGARA FALLS  PTSUNNY   79  45  29 E12       29.59F                  
BUFFALO        PTSUNNY   78  41  26 E12       29.60F                  
DUNKIRK        PTSUNNY   67  51  56 NE6       29.61S                  
JAMESTOWN      CLOUDY    63  48  59 SE6       29.64S                  
WELLSVILLE     CLOUDY    69  45  41 SE10G23   29.70S                  
ROCHESTER      PTSUNNY   77  45  32 SE12G21   29.65F                  
PENN YAN       MOSUNNY   73  43  33 SE12      29.69R                  
$$

             KEY
       WCI = WIND CHILL INDEX
       VSB = VISIBILITY
       HX  = HEAT INDEX
$$
  

Return to Home page


Western Regional Climate Center, wrcc@dri.edu